This is the latest recevied weather packets stored in our database for station/object W4SNA-3. If no packets are shown the sender has not sent any weather packets the latest 10 day(s).
| Time | Temp. | Humidity | Pressure | Rain* | Wind** | Luminosity | Snow |
|---|---|---|---|---|---|---|---|
| 1777997699 | 21.11° C | 52% | 1014.6 hPa | 0 mm | - | - | - |
| 1777997399 | 21.11° C | 55% | 1014.5 hPa | 0 mm | - | - | - |
| 1777997099 | 21.11° C | 54% | 1014.6 hPa | 0 mm | - | - | - |
| 1777996799 | 21.11° C | 54% | 1014.7 hPa | 0 mm | - | - | - |
| 1777996499 | 21.11° C | 54% | 1014.6 hPa | 0 mm | - | - | - |
| 1777996199 | 21.11° C | 55% | 1014.6 hPa | 0 mm | - | - | - |
| 1777995899 | 21.11° C | 52% | 1014.6 hPa | 0 mm | - | - | - |
| 1777995599 | 21.67° C | 52% | 1014.6 hPa | 0 mm | - | - | - |
| 1777995303 | 21.67° C | 53% | 1014.6 hPa | 0 mm | - | - | - |
| 1777995018 | 21.11° C | 55% | 1014.7 hPa | 0 mm | - | - | - |
| 1777994699 | 21.11° C | 55% | 1014.9 hPa | 0 mm | - | - | - |
| 1777994399 | 21.11° C | 57% | 1014.8 hPa | 0 mm | - | - | - |
| 1777994099 | 20.56° C | 60% | 1015 hPa | 0 mm | - | - | - |
| 1777993799 | 21.11° C | 56% | 1015.1 hPa | 0 mm | - | - | - |
| 1777993527 | 21.11° C | 55% | 1015 hPa | 0 mm | - | - | - |
| 1777993199 | 21.11° C | 53% | 1014.9 hPa | 0 mm | - | - | - |
| 1777992899 | 21.11° C | 54% | 1014.9 hPa | 0 mm | - | - | - |
| 1777992606 | 21.11° C | 55% | 1014.9 hPa | 0 mm | - | - | - |
| 1777992347 | 21.11° C | 54% | 1014.8 hPa | 0 mm | - | - | - |
| 1777991999 | 21.11° C | 51% | 1014.8 hPa | 0 mm | - | - | - |
| 1777991699 | 21.11° C | 52% | 1014.7 hPa | 0 mm | - | - | - |
| 1777991399 | 21.11° C | 55% | 1014.8 hPa | 0 mm | - | - | - |
| 1777991099 | 20.56° C | 57% | 1014.7 hPa | 0 mm | - | - | - |
| 1777990762 | 20.56° C | 55% | 1014.6 hPa | 0 mm | - | - | - |
| 1777990464 | 20.56° C | 56% | 1014.4 hPa | 0 mm | - | - | - |
* Rain latest hour (hover to see other rain measurements)
** Current wind speed in m/s (hover to see current wind gust speed)